Weather History for KCXY - December, 2012

Change the Weather History Date:

Tuesday, December 4, 2012

  Actual Average Record
Temperature  
Mean Temperature 56 °F -  
Max Temperature 66 °F 45 °F 71 °F (1998)
Min Temperature 46 °F 30 °F 15 °F (2002)
Degree Days  
Heating Degree Days 9    
Growing Degree Days 6 (Base 50)    
Moisture  
Dew Point 51 °F    
Average Humidity 89    
Maximum Humidity 100    
Minimum Humidity 56    
Precipitation  
Precipitation 0.03 in - - ()
Sea Level Pressure  
Sea Level Pressure 30.17 in    
Wind  
Wind Speed 1 mph (SE)    
Max Wind Speed 12 mph    
Max Gust Speed 22 mph    
Visibility 3 miles    
Events Fog , Rain    
Averages and records for this station are not official NWS values.
T = Trace of Precipitation, MM = Missing Value Source: NWS Daily Summary

Daily Weather History Graph

Daily Weather History Graph

Search for Another Location

Airport or City:

Trip Planner

Search our weather history database for the weather conditions in past years. The results will help you decide how hot, cold, wet, or windy it might be!

Date:

Astronomy

Dec. 04, 2012 Rise Set
Actual Time 7:14 AM EST 4:41 PM EST
Civil Twilight 6:43 AM EST 5:11 PM EST
Nautical Twilight 6:09 AM EST 5:45 PM EST
Astronomical Twilight 5:37 AM EST 6:18 PM EST
Moon 10:27 PM EST (12/4) 11:06 AM EST (12/4)
Length of Visible Light 10h 28m
Length of Day
9h 27m
Waning Gibbous, 69% of the Moon is Illuminated
Dec 4
Waning Gibbous
Dec 6
Last Quarter
Dec 13
New
Dec 20
First Quarter
Dec 28
Full

Hourly Weather History & Observations

Time (EST) Temp. Dew Point Humidity Pressure Visibility Wind Dir Wind Speed Gust Speed Precip Events Conditions
12:56 AM 55.0 °F 53.1 °F 93% 30.21 in 4.0 mi Calm Calm - 0.03 in Rain Light Rain
1:56 AM 54.0 °F 53.1 °F 97% 30.22 in 5.0 mi Calm Calm - 0.00 in   Overcast
2:35 AM 53.6 °F 51.8 °F 94% 30.22 in 2.5 mi Calm Calm - N/A   Mostly Cloudy
2:45 AM 53.6 °F 51.8 °F 94% 30.22 in 3.0 mi Calm Calm - N/A   Mostly Cloudy
2:54 AM 51.8 °F 51.8 °F 100% 30.21 in 2.5 mi SE 3.5 mph - N/A   Mostly Cloudy
2:56 AM 51.1 °F 51.1 °F 100% 30.22 in 2.0 mi SE 4.6 mph - N/A   Mostly Cloudy
2:59 AM 51.8 °F 50.0 °F 94% 30.21 in 1.2 mi SE 4.6 mph - N/A   Mostly Cloudy
3:08 AM 51.8 °F 51.8 °F 100% 30.21 in 2.5 mi ESE 3.5 mph - N/A   Partly Cloudy
3:16 AM 51.8 °F 50.0 °F 94% 30.21 in 3.0 mi East 3.5 mph - N/A   Partly Cloudy
3:20 AM 51.8 °F 50.0 °F 94% 30.21 in 1.8 mi Calm Calm - N/A   Partly Cloudy
3:23 AM 50.0 °F 50.0 °F 100% 30.21 in 0.8 mi Calm Calm - N/A   Mist
3:38 AM 51.8 °F 51.8 °F 100% 30.21 in 0.8 mi Calm Calm - N/A   Scattered Clouds
3:56 AM 52.0 °F 51.1 °F 97% 30.21 in 2.0 mi Calm Calm - N/A   Mostly Cloudy
4:01 AM 51.8 °F 51.8 °F 100% 30.21 in 1.2 mi Calm Calm - N/A   Overcast
4:11 AM 48.2 °F 48.2 °F 100% 30.21 in 0.5 mi Calm Calm - N/A Fog Fog
4:56 AM 48.9 °F 48.9 °F 100% 30.22 in 0.5 mi Calm Calm - N/A Fog Fog
5:56 AM 48.9 °F 48.0 °F 97% 30.21 in 0.8 mi Calm Calm - N/A   Overcast
6:04 AM 50.0 °F 48.2 °F 94% 30.21 in 1.5 mi Calm Calm - N/A   Overcast
6:12 AM 50.0 °F 48.2 °F 94% 30.21 in 2.0 mi Calm Calm - N/A   Mostly Cloudy
6:14 AM 48.2 °F 48.2 °F 100% 30.21 in 1.2 mi Calm Calm - N/A   Overcast
6:19 AM 48.2 °F 48.2 °F 100% 30.21 in 0.5 mi Calm Calm - N/A Fog Fog
6:33 AM 48.2 °F 48.2 °F 100% 30.21 in 0.5 mi Calm Calm - N/A Fog Fog
6:38 AM 48.2 °F 48.2 °F 100% 30.21 in 1.0 mi Calm Calm - N/A   Mist
6:47 AM 48.2 °F 48.2 °F 100% 30.21 in 0.2 mi Calm Calm - N/A Fog Fog
6:56 AM 46.9 °F 46.9 °F 100% 30.22 in 0.2 mi Calm Calm - N/A Fog Fog
7:10 AM 46.4 °F 46.4 °F 100% 30.22 in 0.2 mi Calm Calm - N/A Fog Fog
7:46 AM 48.2 °F 48.2 °F 100% 30.22 in 0.2 mi Calm Calm - N/A Fog Fog
7:54 AM 48.2 °F 48.2 °F 100% 30.22 in 0.2 mi Calm Calm - N/A Fog Fog
7:56 AM 46.9 °F 46.9 °F 100% 30.23 in 0.2 mi Calm Calm - N/A Fog Fog
8:56 AM 51.1 °F 50.0 °F 96% 30.23 in 0.2 mi East 3.5 mph - N/A Fog Fog
9:56 AM 52.0 °F 52.0 °F 100% 30.23 in 0.2 mi Calm Calm - N/A Fog Fog
10:34 AM 53.6 °F 53.6 °F 100% 30.22 in 0.5 mi Calm Calm - N/A Fog Fog
10:49 AM 53.6 °F 53.6 °F 100% 30.21 in 1.5 mi Calm Calm - N/A   Mostly Cloudy
10:56 AM 54.0 °F 53.1 °F 97% 30.21 in 2.0 mi Calm Calm - N/A   Scattered Clouds
11:12 AM 57.2 °F 53.6 °F 88% 30.20 in 3.0 mi Calm Calm - N/A   Clear
11:56 AM 59.0 °F 53.1 °F 81% 30.18 in 5.0 mi East 3.5 mph - N/A   Haze
12:56 PM 64.0 °F 54.0 °F 70% 30.14 in 5.0 mi Calm Calm - N/A   Haze
1:56 PM 66.0 °F 54.0 °F 65% 30.10 in 7.0 mi Calm Calm - N/A   Haze
2:56 PM 66.0 °F 55.0 °F 68% 30.08 in 8.0 mi ESE 8.1 mph - N/A   Haze
3:56 PM 66.0 °F 54.0 °F 65% 30.07 in 10.0 mi East 5.8 mph - N/A   Haze
4:56 PM 57.9 °F 52.0 °F 81% 30.07 in 10.0 mi SE 3.5 mph - N/A   Haze
5:56 PM 62.1 °F 53.1 °F 72% 30.06 in 10.0 mi SE 4.6 mph - N/A   Haze
6:56 PM 63.0 °F 52.0 °F 67% 30.04 in 10.0 mi South 9.2 mph - N/A   Haze
7:56 PM 64.9 °F 50.0 °F 58% 30.02 in 10.0 mi SSW 10.4 mph 21.9 mph N/A   Haze
8:56 PM 64.9 °F 48.9 °F 56% 30.00 in 10.0 mi SSW 11.5 mph 20.7 mph N/A   Haze
9:56 PM 64.0 °F 50.0 °F 60% 29.99 in 10.0 mi SSW 10.4 mph - N/A   Haze
10:56 PM 64.0 °F 51.1 °F 63% 29.97 in 10.0 mi South 6.9 mph - N/A   Haze
11:56 PM 63.0 °F 51.1 °F 65% 29.95 in 10.0 mi Calm Calm - N/A   Haze